RYR76JH LIRN-LATI

Flight info

Callsign RYR76JH
Flight time 0h 46m
Altitude 34000
Route GALTI DCT LUNAR DCT MATED DCT MOKTO DCT KAPPO DCT XAPAT/N0373F190 M603 GOKEL M26 DITAN
Aircraft B738/M-SDE3FGIJ1LRWY/SB1

Departure

Time 2026-05-09 09:28
Airport Naples International Airport (LIRN)

Arrival

Time 2026-05-09 10:14
Airport Tirana International Airport Mother Teresa (LATI)
Time Latitude Longitude Altitude Speed Heading
2026-05-09 09:16 40.87764 14.27847 317 ft 0 kts 264°
2026-05-09 09:24 40.87765 14.27857 317 ft 1 kts 264°
2026-05-09 09:24 40.87765 14.27868 317 ft 2 kts 264°
2026-05-09 09:24 40.87767 14.27884 315 ft 2 kts 264°
2026-05-09 09:24 40.87768 14.27903 315 ft 2 kts 277°
2026-05-09 09:25 40.87763 14.27920 315 ft 2 kts 308°
2026-05-09 09:25 40.87751 14.27930 313 ft 2 kts 342°
2026-05-09 09:25 40.87743 14.27933 313 ft 0 kts 352°
2026-05-09 09:26 40.87753 14.27931 313 ft 4 kts 352°
2026-05-09 09:26 40.87806 14.27924 315 ft 12 kts 353°
2026-05-09 09:27 40.87881 14.27868 315 ft 13 kts 321°
2026-05-09 09:27 40.87949 14.27797 317 ft 12 kts 330°
2026-05-09 09:27 40.88019 14.27846 313 ft 0 kts 56°
2026-05-09 09:27 40.88048 14.27906 311 ft 32 kts 58°
2026-05-09 09:28 40.88305 14.28447 291 ft 104 kts 58°
2026-05-09 09:28 40.88781 14.29468 310 ft 154 kts 59°
2026-05-09 09:28 40.89362 14.30703 823 ft 164 kts 57°
2026-05-09 09:28 40.89987 14.32022 1375 ft 174 kts 57°
2026-05-09 09:29 40.90639 14.33404 2001 ft 180 kts 58°
2026-05-09 09:29 40.91305 14.34819 2581 ft 189 kts 58°
2026-05-09 09:29 40.92046 14.36392 2839 ft 211 kts 58°
2026-05-09 09:29 40.92829 14.38058 3358 ft 214 kts 59°
2026-05-09 09:30 40.93258 14.39980 3630 ft 231 kts 95°
2026-05-09 09:30 40.92637 14.42000 3869 ft 255 kts 126°
2026-05-09 09:30 40.91500 14.43848 4530 ft 262 kts 128°
2026-05-09 09:30 40.90332 14.45717 5265 ft 265 kts 128°
2026-05-09 09:31 40.89153 14.47622 5968 ft 270 kts 127°
2026-05-09 09:31 40.87961 14.49573 6676 ft 275 kts 127°
2026-05-09 09:31 40.86756 14.51569 7341 ft 281 kts 127°
2026-05-09 09:32 40.84276 14.55722 8654 ft 295 kts 128°
2026-05-09 09:32 40.82996 14.57877 9371 ft 300 kts 128°
2026-05-09 09:32 40.81700 14.60065 10114 ft 305 kts 128°
2026-05-09 09:32 40.80384 14.62287 10528 ft 322 kts 128°
2026-05-09 09:33 40.78956 14.64702 10749 ft 344 kts 128°
2026-05-09 09:33 40.77452 14.67244 11211 ft 357 kts 128°
2026-05-09 09:33 40.75911 14.69849 11851 ft 363 kts 128°
2026-05-09 09:33 40.74346 14.72491 12560 ft 368 kts 128°
2026-05-09 09:34 40.72757 14.75172 13284 ft 374 kts 128°
2026-05-09 09:34 40.71145 14.77893 13967 ft 380 kts 128°
2026-05-09 09:34 40.69502 14.80663 14594 ft 387 kts 128°
2026-05-09 09:36 40.65393 15.04105 19110 ft 415 kts 78°
2026-05-09 09:36 40.65792 15.07894 19694 ft 420 kts 79°
2026-05-09 09:36 40.66182 15.11735 20202 ft 425 kts 79°
2026-05-09 09:37 40.66561 15.15560 20780 ft 430 kts 79°
2026-05-09 09:37 40.66946 15.19488 21270 ft 435 kts 79°
2026-05-09 09:37 40.67334 15.23470 21811 ft 440 kts 80°
2026-05-09 09:37 40.67724 15.27486 22361 ft 445 kts 80°
2026-05-09 09:38 40.68120 15.31556 22847 ft 451 kts 80°
2026-05-09 09:38 40.68521 15.35672 23334 ft 455 kts 80°
2026-05-09 09:38 40.68905 15.39835 23824 ft 460 kts 83°
2026-05-09 09:38 40.68950 15.44069 24252 ft 466 kts 94°
2026-05-09 09:39 40.68567 15.48257 24710 ft 468 kts 97°
2026-05-09 09:39 40.68094 15.52505 25126 ft 470 kts 98°
2026-05-09 09:39 40.67601 15.56776 25520 ft 474 kts 98°
2026-05-09 09:39 40.67111 15.61089 25915 ft 478 kts 97°
2026-05-09 09:40 40.66630 15.65435 26347 ft 481 kts 97°
2026-05-09 09:40 40.66157 15.69817 26737 ft 485 kts 97°
2026-05-09 09:40 40.65688 15.74227 27158 ft 487 kts 97°
2026-05-09 09:40 40.65219 15.78653 27582 ft 489 kts 97°
2026-05-09 09:41 40.64746 15.83111 27932 ft 494 kts 97°
2026-05-09 09:41 40.64274 15.87537 28315 ft 497 kts 97°
2026-05-09 09:41 40.63791 15.92051 28713 ft 499 kts 97°
2026-05-09 09:41 40.63301 15.96591 29083 ft 502 kts 97°
2026-05-09 09:42 40.62808 16.01151 29465 ft 505 kts 96°
2026-05-09 09:42 40.62309 16.05742 29709 ft 510 kts 96°
2026-05-09 09:42 40.61804 16.10387 30035 ft 513 kts 96°
2026-05-09 09:42 40.61297 16.15028 30418 ft 513 kts 96°
2026-05-09 09:43 40.60969 16.19705 30660 ft 514 kts 89°
2026-05-09 09:43 40.60953 16.24384 30933 ft 515 kts 86°
2026-05-09 09:43 40.61024 16.29102 31245 ft 516 kts 85°
2026-05-09 09:43 40.61114 16.33758 31658 ft 515 kts 85°
2026-05-09 09:44 40.61195 16.38472 32032 ft 516 kts 85°
2026-05-09 09:44 40.61254 16.43200 32335 ft 518 kts 86°
2026-05-09 09:44 40.61293 16.47939 32685 ft 518 kts 86°
2026-05-09 09:44 40.61318 16.52681 33041 ft 518 kts 86°
2026-05-09 09:45 40.61335 16.57424 33393 ft 518 kts 86°
2026-05-09 09:45 40.61348 16.62168 33725 ft 518 kts 87°
2026-05-09 09:45 40.61359 16.66906 34084 ft 518 kts 87°
2026-05-09 09:46 40.61383 16.76430 34152 ft 529 kts 86°
2026-05-09 09:46 40.61402 16.86210 34136 ft 540 kts 87°
2026-05-09 09:47 40.61411 16.96156 34109 ft 545 kts 87°
2026-05-09 09:47 40.61409 17.06147 34104 ft 546 kts 87°
2026-05-09 09:48 40.61402 17.16082 34087 ft 547 kts 87°
2026-05-09 09:48 40.61392 17.26082 34076 ft 546 kts 87°
2026-05-09 09:49 40.61381 17.36067 34075 ft 545 kts 87°
2026-05-09 09:49 40.61362 17.46029 34084 ft 544 kts 86°
2026-05-09 09:50 40.61333 17.55991 34077 ft 544 kts 86°
2026-05-09 09:50 40.61296 17.65879 34087 ft 544 kts 87°
2026-05-09 09:51 40.61249 17.75829 34117 ft 544 kts 86°
2026-05-09 09:51 40.61195 17.85792 34082 ft 545 kts 86°
2026-05-09 09:52 40.61132 17.95762 34074 ft 545 kts 86°
2026-05-09 09:52 40.61055 18.05671 34076 ft 545 kts 86°
2026-05-09 09:53 40.60950 18.15646 34083 ft 545 kts 87°
2026-05-09 09:53 40.60840 18.25621 34089 ft 545 kts 87°
2026-05-09 09:54 40.60739 18.35592 34096 ft 545 kts 86°
2026-05-09 09:54 40.60648 18.45491 34135 ft 545 kts 86°
2026-05-09 09:55 40.60511 18.55506 34087 ft 548 kts 86°
2026-05-09 09:55 40.60359 18.65518 34094 ft 546 kts 87°
2026-05-09 09:56 40.60206 18.75500 34097 ft 544 kts 87°
2026-05-09 09:56 40.60127 18.80420 34095 ft 529 kts 86°
2026-05-09 09:56 40.60216 18.85099 34055 ft 505 kts 73°
2026-05-09 09:56 40.61234 18.89305 34099 ft 464 kts 52°
2026-05-09 09:57 40.62930 18.92728 34070 ft 433 kts 39°
2026-05-09 09:57 40.64940 18.95631 33233 ft 427 kts 31°
2026-05-09 09:57 40.67248 18.98077 32332 ft 428 kts 22°
2026-05-09 09:57 40.69885 18.99918 31458 ft 433 kts 14°
2026-05-09 09:58 40.72701 19.01502 30563 ft 444 kts 13°
2026-05-09 09:58 40.75575 19.03074 29368 ft 450 kts 14°
2026-05-09 09:58 40.78484 19.04665 28142 ft 456 kts 15°
2026-05-09 09:58 40.81395 19.06271 26951 ft 463 kts 17°
2026-05-09 09:59 40.84384 19.07938 25767 ft 469 kts 17°
2026-05-09 09:59 40.87404 19.09639 24636 ft 474 kts 18°
2026-05-09 09:59 40.90445 19.11363 23508 ft 477 kts 18°
2026-05-09 09:59 40.93488 19.13096 22658 ft 472 kts 19°
2026-05-09 10:00 40.96421 19.14777 22106 ft 449 kts 19°
2026-05-09 10:00 40.99260 19.16403 21045 ft 442 kts 19°
2026-05-09 10:00 41.02073 19.18007 19945 ft 438 kts 19°
2026-05-09 10:00 41.04862 19.19593 18875 ft 434 kts 19°
2026-05-09 10:01 41.07587 19.21144 17698 ft 430 kts 20°
2026-05-09 10:01 41.10316 19.22699 16471 ft 424 kts 20°
2026-05-09 10:01 41.13010 19.24236 15293 ft 419 kts 20°
2026-05-09 10:01 41.15652 19.25746 14511 ft 405 kts 21°
2026-05-09 10:02 41.18200 19.27206 13705 ft 394 kts 21°
2026-05-09 10:02 41.20694 19.28634 12628 ft 389 kts 21°
2026-05-09 10:02 41.23171 19.30052 11613 ft 385 kts 21°
2026-05-09 10:02 41.25597 19.31442 10950 ft 379 kts 22°
2026-05-09 10:03 41.28008 19.32825 10306 ft 376 kts 22°
2026-05-09 10:03 41.30407 19.34202 9582 ft 375 kts 22°
2026-05-09 10:03 41.32758 19.35554 8918 ft 371 kts 22°
2026-05-09 10:03 41.35116 19.36911 8281 ft 367 kts 22°
2026-05-09 10:04 41.37446 19.38253 7668 ft 363 kts 22°
2026-05-09 10:04 41.39747 19.39579 7086 ft 358 kts 22°
2026-05-09 10:04 41.41977 19.40867 6967 ft 341 kts 22°
2026-05-09 10:04 41.44105 19.42096 6807 ft 326 kts 22°
2026-05-09 10:05 41.46143 19.43274 6674 ft 313 kts 22°
2026-05-09 10:05 41.48102 19.44406 6540 ft 301 kts 22°
2026-05-09 10:05 41.49965 19.45483 6408 ft 290 kts 22°
2026-05-09 10:05 41.51784 19.46536 6283 ft 280 kts 22°
2026-05-09 10:06 41.53541 19.47553 6164 ft 271 kts 22°
2026-05-09 10:06 41.55240 19.48538 6051 ft 262 kts 22°
2026-05-09 10:06 41.56888 19.49492 5905 ft 257 kts 22°
2026-05-09 10:06 41.58533 19.50446 5623 ft 257 kts 22°
2026-05-09 10:07 41.60169 19.51394 5368 ft 255 kts 22°
2026-05-09 10:07 41.61789 19.52336 5181 ft 251 kts 23°
2026-05-09 10:07 41.63164 19.53634 5045 ft 245 kts 52°
2026-05-09 10:07 41.63860 19.55642 5029 ft 234 kts 75°
2026-05-09 10:08 41.64095 19.57763 4924 ft 227 kts 84°
2026-05-09 10:08 41.64228 19.59838 4831 ft 223 kts 84°
2026-05-09 10:08 41.64363 19.61914 4727 ft 226 kts 84°
2026-05-09 10:08 41.64509 19.64005 4492 ft 225 kts 84°
2026-05-09 10:09 41.64657 19.66074 4303 ft 221 kts 85°
2026-05-09 10:09 41.64431 19.68041 4056 ft 214 kts 121°
2026-05-09 10:09 41.63341 19.69248 3850 ft 203 kts 165°
2026-05-09 10:09 41.61996 19.69297 3673 ft 192 kts 185°
2026-05-09 10:10 41.60678 19.69353 3458 ft 187 kts 176°
2026-05-09 10:10 41.59408 19.69528 3313 ft 177 kts 175°
2026-05-09 10:10 41.58174 19.69705 3183 ft 182 kts 175°
2026-05-09 10:10 41.56922 19.69881 2956 ft 180 kts 175°
2026-05-09 10:11 41.55680 19.70056 2722 ft 179 kts 175°
2026-05-09 10:11 41.54447 19.70229 2485 ft 178 kts 175°
2026-05-09 10:11 41.53219 19.70400 2252 ft 176 kts 175°
2026-05-09 10:11 41.52005 19.70570 2008 ft 173 kts 175°
2026-05-09 10:12 41.50855 19.70732 1809 ft 165 kts 175°
2026-05-09 10:12 41.49709 19.70892 1567 ft 163 kts 176°
2026-05-09 10:12 41.48616 19.71046 1329 ft 152 kts 176°
2026-05-09 10:12 41.47583 19.71191 1138 ft 147 kts 176°
2026-05-09 10:13 41.46572 19.71331 944 ft 146 kts 175°
2026-05-09 10:13 41.45553 19.71481 769 ft 150 kts 174°
2026-05-09 10:13 41.44496 19.71643 559 ft 154 kts 175°
2026-05-09 10:13 41.43422 19.71798 335 ft 156 kts 174°
2026-05-09 10:14 41.42366 19.71938 125 ft 146 kts 174°
2026-05-09 10:14 41.41469 19.72057 117 ft 112 kts 174°
2026-05-09 10:14 41.40933 19.72129 123 ft 58 kts 174°
2026-05-09 10:14 41.40744 19.72153 127 ft 13 kts 175°
2026-05-09 10:15 41.40680 19.72084 127 ft 16 kts 258°
2026-05-09 10:15 41.40648 19.71902 123 ft 23 kts 256°
2026-05-09 10:15 41.40695 19.71769 124 ft 19 kts 353°
2026-05-09 10:15 41.40820 19.71746 124 ft 18 kts 349°
2026-05-09 10:16 41.40943 19.71718 125 ft 18 kts 351°
2026-05-09 10:16 41.41073 19.71698 121 ft 20 kts 355°
2026-05-09 10:16 41.41215 19.71679 120 ft 21 kts 353°
2026-05-09 10:16 41.41365 19.71658 122 ft 23 kts 354°
2026-05-09 10:17 41.41528 19.71636 120 ft 24 kts 354°
2026-05-09 10:17 41.41702 19.71614 118 ft 26 kts 354°
2026-05-09 10:17 41.41885 19.71590 118 ft 27 kts 354°
2026-05-09 10:17 41.41958 19.71580 115 ft 4 kts 354°
2026-05-09 10:18 41.41988 19.71557 115 ft 6 kts 288°
2026-05-09 10:18 41.41988 19.71509 115 ft 0 kts 264°